Home   Weather   Tamsweg   Past weeks

Flag for Austria Past Weather in Tamsweg, Salzburg, Austria — Yesterday and Last 2 Weeks

Now
36 °F

Fog.


Feels Like: 36 °F
Forecast: 24 / 45 °F
Wind: No wind

Location: Aigen Im Ennstal

Current Time: Apr 28, 2017 at 12:43:13 pm

Latest Report: Apr 28, 2017 at 12:00 pm


Visibility: N/A

Pressure: 29.84 "Hg (26.29 "Hg at 1021m altitude)

Humidity: 88%

Dew Point: 33 °F

Location of TamswegLocation

Past Weather in Tamsweg — Graph

°F

Tamsweg Temperature Yesterday

Maximum temperature yesterday: 45 °F (at 12:00 am)
Minimum temperature yesterday: 38 °F (at 11:00 pm)
Average temperature yesterday: 42 °F

High & Low Weather Summary for the Past Weeks

 TemperatureHumidityPressure
High67 °F (Apr 25, 5:00 pm)100% (Apr 28, 8:00 am)30.60 "Hg (Apr 28, 8:00 am)
Low29 °F (Apr 21, 3:00 am)25% (Apr 24, 5:00 pm)29.61 "Hg (Apr 25, 5:00 pm)
Average43 °F69%30.08 "Hg
* Reported Apr 13 11:00 am — Apr 28 11:00 am, Tamsweg, Weather by CustomWeather, © 2017

Note: Actual official high and low records may vary slightly from our data, if they occured in-between our weather recording intervals... More about our weather records

Advertising

Tamsweg Weather History for the Previous 24 Hours

Scroll right to see more
 ConditionsComfort  
Time TempWeatherWind HumidityBarometerVisibility
11:00 am
Fri, Apr 28
37 °FLight rain. Low clouds.N/A84%29.84 "Hg5 mi
10:00 am34 °FChilly.1 mph92%29.85 "HgN/A
9:00 am34 °FChilly.No wind92%29.87 "HgN/A
8:00 am32 °FLow clouds.N/A100%29.84 "Hg4 mi
7:00 am33 °FLow clouds.N/A94%29.86 "Hg3 mi
6:00 am33 °FFog.No wind94%29.85 "HgN/A
5:00 am33 °FChilly.1 mph95%29.87 "HgN/A
4:00 am33 °FFog.1 mph94%29.88 "HgN/A
3:00 am33 °FFog.1 mph93%29.90 "HgN/A
2:00 am34 °FChilly.1 mph91%29.88 "HgN/A
1:00 am37 °FFog.1 mph90%29.89 "HgN/A
12:00 am37 °FFog.2 mph89%29.89 "HgN/A
11:00 pm
Thu, Apr 27
38 °FSprinkles. Low clouds.N/A89%29.91 "Hg6 mi
10:00 pm38 °FChilly.2 mph88%29.93 "HgN/A
9:00 pm39 °FFog.1 mph88%29.94 "HgN/A
8:00 pm41 °FSprinkles. Low clouds.N/A85%29.91 "Hg7 mi
7:00 pm42 °FSprinkles. Cloudy.2 mph82%29.91 "HgN/A
6:00 pm42 °FFog.2 mph82%29.92 "HgN/A
5:00 pm44 °FSprinkles. Overcast.N/A79%29.90 "Hg9 mi
4:00 pm44 °FQuite cool.2 mph78%29.91 "HgN/A
3:00 pm45 °FCool.2 mph77%29.91 "HgN/A
2:00 pm45 °FOvercast.N/A77%29.90 "Hg9 mi
1:00 pm44 °FQuite cool.2 mph82%29.91 "HgN/A
12:00 pm43 °FQuite cool.1 mph83%29.93 "HgN/A
Weather by CustomWeather, © 2017

See weather overviewHow to use our weather pages